Location: ??????????
(44.2167°N, 135.5333°E)
Time: 15:01:34
(UTC+00:00)

Cosmos 2369 Rocket - Pass Details

Date: 15 June 2025
Orbit: 827 x 852 km, 71.0° (Epoch: 16 July)

Event Time Altitude Azimuth Distance (km) Brightness Sun altitude
Exits shadow 17:43:17 - 176° (S) 2,682 4.4 -12.6°
Reaches altitude 10° 17:43:54 10° 174° (S) 2,468 4.2 -12.6°
Maximum altitude 17:49:08 40° 106° (ESE) 1,242 3.3 -12.0°
Drops below altitude 10° 17:54:24 10° 39° (NE) 2,487 6.2 -11.4°
Sets 17:56:59 0° 32° (NNE) 3,426 7.4 -11.1°
